Kosmos-2527

operational
NORAD ID: 43508 Int'l Des: 2018-053 Owner: VVKOV/IACG Country: RU Constellation: GLONASS
MEOCIRCULAR

Kosmos-2527について

説明を読み込み中...

リアルタイム位置

3D地球を読み込み中...

次回通過

高度履歴

Altitude vs Time

uPlot chart will show altitude changes over time

軌道要素

1 43508U 18053A 25297.51554903 .00000016 00000-0 00000+0 0 9990
2 43508 65.4465 81.7763 0007859 215.4921 144.4452 2.13102255 57251
Epoch: Oct 24, 2025 • Age: 44 hours

現在のステータス

高度 19147.0 km
速度 3.95 km/s
衛星直下点 -38.88°S, 95.7°W
打ち上げ日 Jun 16, 2018
運用期間 7.3 years
タイプ other

技術仕様

分類 Payload
質量 1450.00 kg
乾燥質量 1200.00 kg
総質量 1450.00 kg
長さ 4.00 m
直径 1.50 m
スパン 7.80 m
形状 Cyl + Ant + 2 Pan
製造者 RESH
バスタイプ Uragan
フェーズステータス In Orbit
所有者/国 VVKOV/IACG/RU

大規模コンステレーション

Loading constellations...